Weather History for Watertown, NY

Change the Weather History Date:

Thursday, October 4, 2012

  Actual Average Record
Temperature  
Mean Temperature 65 °F 52 °F  
Max Temperature 72 °F 63 °F 84 °F (1951)
Min Temperature 58 °F 42 °F 23 °F (1974)
Degree Days  
Heating Degree Days 0 13  
Month to date heating degree days 13 50  
Since 1 July heating degree days 199 324  
Cooling Degree Days 0 0  
Month to date cooling degree days 0 0  
Year to date cooling degree days 606 359  
Growing Degree Days 14 (Base 50)    
Moisture  
Dew Point 59 °F    
Average Humidity 79    
Maximum Humidity 100    
Minimum Humidity 57    
Precipitation  
Precipitation 0.00 in 0.13 in 0.77 in (1980)
Month to date precipitation 0.20 0.50  
Year to date precipitation 26.26 26.02  
Sea Level Pressure  
Sea Level Pressure 30.08 in    
Wind  
Wind Speed 5 mph (SSW)    
Max Wind Speed 14 mph    
Max Gust Speed 20 mph    
Visibility 6 miles    
Events Fog    
T = Trace of Precipitation, MM = Missing Value Source: NWS Daily Summary

Daily Weather History Graph

Daily Weather History Graph

Search for Another Location

Airport:

Trip Planner

Search our weather history database for the weather conditions in past years. The results will help you decide how hot, cold, wet, or windy it might be!

Date:

Astronomy

Oct. 04, 2012 Rise Set
Actual Time 7:05 AM EDT 6:38 PM EDT
Civil Twilight 6:37 AM EDT 7:07 PM EDT
Nautical Twilight 6:03 AM EDT 7:40 PM EDT
Astronomical Twilight 5:29 AM EDT 8:14 PM EDT
Moon 9:03 PM EDT (10/4) 11:30 AM EDT (10/4)
Length of Visible Light 12h 30m
Length of Day
11h 32m
Waning Gibbous, 82% of the Moon is Illuminated
Oct 4
Waning Gibbous
Oct 8
Last Quarter
Oct 15
New
Oct 21
First Quarter
Oct 29
Full

Hourly Weather History & Observations

Time (EDT) Temp. Dew Point Humidity Pressure Visibility Wind Dir Wind Speed Gust Speed Precip Events Conditions
12:06 AM 60.8 °F 60.8 °F 100% 30.10 in 0.5 mi Calm Calm - N/A Fog Fog
12:39 AM 60.8 °F 60.8 °F 100% 30.11 in 1.0 mi Calm Calm - N/A   Mostly Cloudy
12:47 AM 60.8 °F 60.8 °F 100% 30.10 in 0.5 mi Calm Calm - N/A Fog Fog
12:56 AM 60.1 °F 60.1 °F 100% 30.09 in 0.2 mi Calm Calm - N/A Fog Fog
1:05 AM 60.8 °F 59.0 °F 94% 30.10 in 0.2 mi Calm Calm - N/A Fog Fog
1:20 AM 60.8 °F 59.0 °F 94% 30.11 in 0.2 mi Calm Calm - N/A Fog Fog
1:56 AM 57.9 °F 57.0 °F 97% 30.10 in 0.2 mi Calm Calm - N/A Fog Fog
2:00 AM 60.8 °F 59.0 °F 94% 30.11 in 0.5 mi Calm Calm - N/A Fog Fog
2:14 AM 60.8 °F 59.0 °F 94% 30.11 in 1.5 mi Calm Calm - N/A   Partly Cloudy
2:21 AM 59.0 °F 59.0 °F 100% 30.11 in 0.8 mi Calm Calm - N/A   Mist
2:56 AM 59.0 °F 59.0 °F 100% 30.10 in 0.2 mi Calm Calm - N/A Fog Fog
3:10 AM 60.8 °F 60.8 °F 100% 30.11 in 0.5 mi Calm Calm - N/A Fog Fog
3:23 AM 60.8 °F 60.8 °F 100% 30.11 in 2.0 mi Calm Calm - N/A   Overcast
3:31 AM 60.8 °F 60.8 °F 100% 30.12 in 5.0 mi Calm Calm - N/A   Overcast
3:56 AM 63.0 °F 62.1 °F 97% 30.12 in 4.0 mi Calm Calm - N/A   Overcast
4:21 AM 62.6 °F 62.6 °F 100% 30.11 in 4.0 mi Calm Calm - N/A   Overcast
4:38 AM 62.6 °F 62.6 °F 100% 30.12 in 3.0 mi Calm Calm - N/A   Overcast
4:47 AM 64.4 °F 62.6 °F 94% 30.12 in 4.0 mi Calm Calm - N/A   Overcast
4:56 AM 64.9 °F 63.0 °F 93% 30.11 in 4.0 mi Calm Calm - N/A   Overcast
5:40 AM 64.4 °F 64.4 °F 100% 30.12 in 5.0 mi SSW 4.6 mph - N/A   Overcast
5:56 AM 64.9 °F 63.0 °F 93% 30.11 in 6.0 mi South 4.6 mph - N/A   Overcast
6:56 AM 64.0 °F 62.1 °F 93% 30.12 in 6.0 mi South 3.5 mph - N/A   Overcast
7:56 AM 63.0 °F 61.0 °F 93% 30.11 in 7.0 mi SSW 4.6 mph - N/A   Overcast
8:56 AM 63.0 °F 60.1 °F 90% 30.13 in 10.0 mi South 3.5 mph - N/A   Mostly Cloudy
9:56 AM 64.9 °F 61.0 °F 87% 30.12 in 10.0 mi SW 6.9 mph - N/A   Overcast
10:56 AM 66.0 °F 60.1 °F 81% 30.11 in 10.0 mi SSW 5.8 mph - N/A   Clear
11:56 AM 66.0 °F 59.0 °F 78% 30.10 in 10.0 mi SSW 5.8 mph - N/A   Clear
12:56 PM 66.9 °F 57.9 °F 73% 30.09 in 10.0 mi SSW 8.1 mph - N/A   Clear
1:56 PM 66.9 °F 57.0 °F 70% 30.07 in 10.0 mi SW 8.1 mph - N/A   Clear
2:56 PM 70.0 °F 57.0 °F 63% 30.05 in 10.0 mi SSW 9.2 mph - N/A   Clear
3:56 PM 71.1 °F 55.9 °F 59% 30.03 in 10.0 mi SW 9.2 mph - N/A   Clear
4:56 PM 71.1 °F 55.0 °F 57% 30.03 in 10.0 mi SSW 10.4 mph - N/A   Clear
5:56 PM 68.0 °F 55.0 °F 63% 30.01 in 10.0 mi SSW 5.8 mph - N/A   Clear
6:56 PM 64.0 °F 55.0 °F 73% 30.01 in 10.0 mi South 3.5 mph - N/A   Clear
7:56 PM 62.1 °F 54.0 °F 75% 30.01 in 10.0 mi South 3.5 mph - N/A   Clear
8:56 PM 62.1 °F 55.0 °F 78% 30.00 in 10.0 mi South 4.6 mph - N/A   Clear
9:56 PM 62.6 °F 55.4 °F 77% 30.02 in 10.0 mi SW 8.1 mph - N/A   Mostly Cloudy
10:56 PM 64.0 °F 55.0 °F 73% 30.00 in 10.0 mi SSW 8.1 mph - N/A   Clear
11:56 PM 64.0 °F 55.9 °F 75% 30.00 in 10.0 mi SW 9.2 mph - N/A   Scattered Clouds